When you browse on this site, cookies collect data to enhance your experience and personalize the content and advertising you see.
Visit our Privacy Policy to learn more. By continuing to use the site, you agree to this use of cookies and data.
  • En España
  • Lista de países
  • Para 7 días
  • Temperatura del agua
  • Mapa Satelital
  • El tiempo en el mapa
  • Informadores
  • user-avatar
    Iniciar sesión

    Tiempo cada hora Vysokiy

    Hoy, 16 Enero, Miércoles

    Tiempo Temperatura Precipitaciones Viento Presión Humedad
    00:00 -12°C° 0 mm 4 mps 728 mmHg 97%
    01:00 -11°C° 0 mm 4 mps 728 mmHg 96%
    02:00 -10°C° 0 mm 4 mps 727 mmHg 96%
    03:00 -9°C° 0.1 mm 3 mps 727 mmHg 96%
    04:00 -9°C° 0.1 mm 3 mps 727 mmHg 96%
    05:00 -9°C° 0.1 mm 3 mps 727 mmHg 96%
    06:00 -9°C° 0 mm 3 mps 727 mmHg 96%
    07:00 -10°C° 0 mm 3 mps 727 mmHg 97%
    08:00 -9°C° 0 mm 2 mps 727 mmHg 97%
    09:00 -9°C° 0 mm 3 mps 727 mmHg 96%
    10:00 -8°C° 0 mm 3 mps 728 mmHg 94%
    11:00 -8°C° 0 mm 4 mps 728 mmHg 93%
    12:00 -8°C° 0 mm 4 mps 729 mmHg 92%
    13:00 -8°C° 0 mm 4 mps 729 mmHg 90%
    14:00 -8°C° 0 mm 4 mps 729 mmHg 89%
    15:00 -8°C° 0 mm 3 mps 730 mmHg 91%
    16:00 -9°C° 0 mm 3 mps 731 mmHg 93%
    17:00 -12°C° 0 mm 3 mps 731 mmHg 95%
    18:00 -12°C° 0 mm 3 mps 732 mmHg 94%
    19:00 -12°C° 0 mm 3 mps 733 mmHg 94%
    20:00 -12°C° 0 mm 3 mps 733 mmHg 93%
    21:00 -12°C° 0 mm 3 mps 734 mmHg 94%
    22:00 -13°C° 0 mm 3 mps 734 mmHg 95%
    23:00 -13°C° 0 mm 3 mps 735 mmHg 95%

    Mañana, 17 Enero, Jueves

    Tiempo Temperatura Precipitaciones Viento Presión Humedad
    00:00 -12°C° 0 mm 3 mps 735 mmHg 95%
    01:00 -12°C° 0 mm 3 mps 736 mmHg 96%
    02:00 -10°C° 0 mm 3 mps 736 mmHg 96%
    03:00 -10°C° 0 mm 3 mps 736 mmHg 96%
    04:00 -10°C° 0 mm 3 mps 737 mmHg 96%
    05:00 -10°C° 0 mm 3 mps 737 mmHg 96%
    06:00 -11°C° 0 mm 4 mps 737 mmHg 95%
    07:00 -11°C° 0 mm 4 mps 737 mmHg 94%
    08:00 -12°C° 0 mm 5 mps 737 mmHg 94%
    09:00 -12°C° 0 mm 6 mps 737 mmHg 94%
    10:00 -11°C° 0 mm 6 mps 737 mmHg 93%
    11:00 -11°C° 0 mm 7 mps 737 mmHg 93%
    12:00 -11°C° 0 mm 7 mps 737 mmHg 92%
    13:00 -11°C° 0 mm 7 mps 736 mmHg 91%
    14:00 -11°C° 0 mm 7 mps 736 mmHg 89%
    15:00 -9°C° 0.1 mm 7 mps 736 mmHg 90%
    16:00 -10°C° 0.1 mm 8 mps 736 mmHg 91%
    17:00 -8°C° 0.1 mm 8 mps 735 mmHg 92%
    18:00 -8°C° 0 mm 8 mps 735 mmHg 92%
    19:00 -9°C° 0 mm 9 mps 735 mmHg 91%
    20:00 -8°C° 0 mm 9 mps 734 mmHg 91%
    21:00 -8°C° 0.1 mm 9 mps 734 mmHg 91%
    22:00 -7°C° 0.1 mm 8 mps 734 mmHg 91%
    23:00 -6°C° 0.1 mm 8 mps 734 mmHg 91%

    Pasado mañana, 18 Enero, Viernes

    Tiempo Temperatura Precipitaciones Viento Presión Humedad
    00:00 -6°C° 0.1 mm 8 mps 734 mmHg 91%
    01:00 -6°C° 0.1 mm 8 mps 734 mmHg 91%
    02:00 -6°C° 0.1 mm 8 mps 735 mmHg 91%
    03:00 -6°C° 0.1 mm 7 mps 734 mmHg 92%
    04:00 -6°C° 0.1 mm 7 mps 734 mmHg 93%
    05:00 -6°C° 0.1 mm 7 mps 734 mmHg 93%
    06:00 -6°C° 0 mm 7 mps 734 mmHg 93%
    07:00 -6°C° 0 mm 7 mps 734 mmHg 94%
    08:00 -6°C° 0 mm 7 mps 734 mmHg 94%
    09:00 -6°C° 0 mm 7 mps 734 mmHg 94%
    10:00 -4°C° 0 mm 7 mps 734 mmHg 93%
    11:00 -4°C° 0 mm 7 mps 734 mmHg 93%
    12:00 -3°C° 0.1 mm 7 mps 733 mmHg 93%
    13:00 -3°C° 0.1 mm 7 mps 733 mmHg 94%
    14:00 -3°C° 0.1 mm 6 mps 733 mmHg 94%
    15:00 -3°C° 0.4 mm 6 mps 733 mmHg 94%
    16:00 -3°C° 0.4 mm 6 mps 733 mmHg 93%
    17:00 -3°C° 0.4 mm 6 mps 733 mmHg 93%
    18:00 -3°C° 0.2 mm 6 mps 733 mmHg 92%
    19:00 -3°C° 0.2 mm 6 mps 733 mmHg 92%
    20:00 -3°C° 0.2 mm 6 mps 733 mmHg 91%
    21:00 -4°C° 0.1 mm 6 mps 733 mmHg 90%
    22:00 -5°C° 0.1 mm 6 mps 733 mmHg 89%
    23:00 -6°C° 0.1 mm 6 mps 734 mmHg 88%

    19 Enero, Sábado

    Tiempo Temperatura Precipitaciones Viento Presión Humedad
    00:00 -7°C° 0 mm 7 mps 734 mmHg 87%
    01:00 -6°C° 0 mm 8 mps 735 mmHg 87%
    02:00 -6°C° 0 mm 8 mps 736 mmHg 87%
    03:00 -8°C° 0 mm 8 mps 737 mmHg 87%
    04:00 -11°C° 0 mm 7 mps 738 mmHg 87%
    05:00 -12°C° 0 mm 6 mps 738 mmHg 87%
    06:00 -12°C° 0 mm 6 mps 739 mmHg 89%
    07:00 -13°C° 0 mm 5 mps 740 mmHg 92%
    08:00 -14°C° 0 mm 5 mps 741 mmHg 95%
    09:00 -13°C° 0 mm 5 mps 741 mmHg 94%
    10:00 -12°C° 0 mm 6 mps 742 mmHg 93%
    11:00 -11°C° 0 mm 6 mps 742 mmHg 92%
    12:00 -10°C° 0 mm 6 mps 742 mmHg 91%
    13:00 -10°C° 0 mm 6 mps 742 mmHg 90%
    14:00 -9°C° 0 mm 6 mps 742 mmHg 89%
    15:00 -10°C° 0 mm 5 mps 743 mmHg 90%
    16:00 -10°C° 0 mm 5 mps 743 mmHg 90%
    17:00 -9°C° 0 mm 4 mps 743 mmHg 90%
    18:00 -10°C° 0 mm 4 mps 743 mmHg 92%
    19:00 -11°C° 0 mm 4 mps 743 mmHg 94%
    20:00 -12°C° 0 mm 4 mps 743 mmHg 95%
    21:00 -12°C° 0 mm 4 mps 744 mmHg 94%
    22:00 -12°C° 0 mm 4 mps 744 mmHg 93%
    23:00 -14°C° 0 mm 4 mps 744 mmHg 92%

    20 Enero, Domingo

    Tiempo Temperatura Precipitaciones Viento Presión Humedad
    00:00 -14°C° 0 mm 4 mps 744 mmHg 92%
    01:00 -14°C° 0 mm 4 mps 744 mmHg 93%
    02:00 -15°C° 0 mm 4 mps 744 mmHg 93%
    03:00 -15°C° 0 mm 4 mps 743 mmHg 94%
    04:00 -16°C° 0 mm 4 mps 743 mmHg 95%
    05:00 -15°C° 0 mm 3 mps 743 mmHg 95%
    06:00 -15°C° 0 mm 3 mps 743 mmHg 95%
    07:00 -15°C° 0 mm 3 mps 743 mmHg 95%
    08:00 -16°C° 0 mm 3 mps 743 mmHg 95%
    09:00 -16°C° 0 mm 4 mps 743 mmHg 94%
    10:00 -15°C° 0 mm 4 mps 743 mmHg 93%
    11:00 -14°C° 0 mm 4 mps 743 mmHg 92%
    12:00 -14°C° 0 mm 4 mps 743 mmHg 93%
    13:00 -14°C° 0 mm 4 mps 742 mmHg 93%
    14:00 -12°C° 0 mm 4 mps 742 mmHg 93%
    15:00 -13°C° 0 mm 3 mps 742 mmHg 94%
    16:00 -14°C° 0 mm 3 mps 742 mmHg 96%
    17:00 -14°C° 0 mm 2 mps 741 mmHg 97%
    18:00 -13°C° 0 mm 2 mps 741 mmHg 97%
    19:00 -13°C° 0 mm 2 mps 741 mmHg 97%
    20:00 -13°C° 0 mm 2 mps 741 mmHg 97%
    21:00 -12°C° 0 mm 2 mps 741 mmHg 97%
    22:00 -10°C° 0 mm 1 mps 741 mmHg 97%
    23:00 -10°C° 0 mm 1 mps 741 mmHg 97%

    21 Enero, Lunes

    Tiempo Temperatura Precipitaciones Viento Presión Humedad
    00:00 -10°C° 0 mm 1 mps 741 mmHg 97%
    01:00 -10°C° 0 mm 1 mps 741 mmHg 97%
    02:00 -11°C° 0 mm 1 mps 741 mmHg 96%
    03:00 -11°C° 0 mm 1 mps 740 mmHg 97%
    04:00 -12°C° 0 mm 0 mps 740 mmHg 97%
    05:00 -12°C° 0 mm 0 mps 740 mmHg 97%
    06:00 -12°C° 0 mm 1 mps 740 mmHg 97%
    07:00 -12°C° 0 mm 1 mps 740 mmHg 97%
    08:00 -14°C° 0 mm 2 mps 740 mmHg 97%
    09:00 -13°C° 0 mm 2 mps 740 mmHg 96%
    10:00 -12°C° 0 mm 2 mps 740 mmHg 96%
    11:00 -12°C° 0 mm 2 mps 740 mmHg 95%
    12:00 -12°C° 0 mm 3 mps 740 mmHg 94%
    13:00 -12°C° 0 mm 3 mps 741 mmHg 94%
    14:00 -12°C° 0 mm 3 mps 741 mmHg 93%
    15:00 -12°C° 0 mm 3 mps 741 mmHg 93%
    16:00 -12°C° 0 mm 2 mps 741 mmHg 94%
    17:00 -13°C° 0 mm 2 mps 741 mmHg 95%
    18:00 -13°C° 0 mm 2 mps 742 mmHg 95%
    19:00 -13°C° 0 mm 2 mps 742 mmHg 95%
    20:00 -13°C° 0 mm 2 mps 743 mmHg 95%
    21:00 -14°C° 0 mm 2 mps 743 mmHg 95%
    22:00 -14°C° 0 mm 2 mps 743 mmHg 95%
    23:00 -15°C° 0 mm 2 mps 744 mmHg 95%
    Mostrar más